Погода в Каракурсаке

Узбекистан     37°32′23″N   67°25′58″E
темп.,
°C
ветер,
м/с
пор.,
м/с
влажн.,
%
обл.,
%
осадки,
мм/ч
давл.,
гПа
погр.,
м
27 февраля, сб
сб2723:000зсз12320 0.0 103023
02:00−1сз01340 0.0 102921
05:00−2з12340 0.0 102921
08:000зюз123050 0.0 103096
11:00+3в012567 0.0 1031533
14:00+7в11268 0.0 10291046
17:00+8в12274 0.0 10281078
20:00+6св22370 0.0 102930
28 февраля, вс
вс2823:00+5всв34410 0.0 102750
02:00+4всв34440 0.0 102546
05:00+3всв23490 0.0 102224
08:00+4св23470 0.0 102131
11:00+11всв34290 0.0 1020506
14:00+15в34190 0.0 1017938
17:00+15вюв33190 0.0 1016880
20:00+10юв23290 0.0 101822
1 марта, пн
пн123:00+7всв11340 0.0 101822
02:00+8св23310 0.0 101922
05:00+7св34330 0.0 101826
08:00+8св223459 0.0 101925
11:00+15всв342036 0.0 1019436
14:00+19в33150 0.0 10181015
17:00+19вюв22160 0.0 1017982
20:00+12ююв122933 0.0 101923
2 марта, вт
вт223:00+11св113266 0.0 101823
02:00+11св342827 0.0 101923
05:00+10св232964 0.0 101725
08:00+12св2327100 0.0 101826
11:00+17ссв2218100 0.0 1018288
14:00+20ююз2215100 0.0 1018706
17:00+19зюз4519100 0.0 1018639
20:00+15ююв2326100 0.0 102030
3 марта, ср
ср323:00+13ю223596 0.0 102023
02:00+13в223694 0.0 101925
05:00+10ссв114556 0.0 101823
08:00+12юв124371 0.0 101922
11:00+16ююв223065 0.0 1019516
14:00+18ю222819 0.0 10171009
17:00+19ю212910 0.0 10151063
20:00+14ю124134 0.0 101523